Вернуться в каталог

FENGYUN 1C DEB

АктивенPO
NORAD 30545·DEBRIS·🇨🇳 China

Запущен May 10, 1999 с Taiyuan Satellite Launch Center

Loading…

Ближайшие Пролёты (ближайшие 24 часа)

TLE

СвежийSource: Space-Track

Эпоха: Sep 14, 2026, 11:06 UTC

1 30545U 99025AKK 26257.46291808  .00000107  00000-0  19014-3 0  9998
2 30545  98.9915  76.6530 0472689  62.7257 302.1190 13.20944485945703

Отслеживайте FENGYUN 1C DEB в реальном времени с AllMySat

Download on the App Store